Lihue, HI

3:42 AM HST on May 30, 2017 (GMT -1000)
Lihue

Weather History for PHLI - September, 2012

Change the Weather History Date:

Thursday, September 20, 2012

  Actual Average Record
Temperature  
Mean Temperature 77 °F 79 °F  
Max Temperature 83 °F 85 °F 89 °F (1959)
Min Temperature 70 °F 74 °F 67 °F (1952)
Degree Days  
Heating Degree Days 0 0  
Month to date heating degree days 0 0  
Since 1 July heating degree days 0 0  
Cooling Degree Days 12 14  
Month to date cooling degree days 277 295  
Year to date cooling degree days 2920 2821  
Growing Degree Days 26 (Base 50)    
Moisture  
Dew Point 70 °F    
Average Humidity 79    
Maximum Humidity 93    
Minimum Humidity 65    
Precipitation  
Precipitation T in 0.08 in 0.82 in (1955)
Month to date precipitation 0.56 1.28  
Year to date precipitation 35.69 22.73  
Snow  
Snow 0.00 in - - ()
Month to date snowfall 0.0  
Since 1 July snowfall 0.0  
Since 1 September snowfall 0.0  
Snow Depth 0.00 in    
Sea Level Pressure  
Sea Level Pressure 30.02 in    
Wind  
Wind Speed 9 mph (NNW)    
Max Wind Speed 17 mph    
Max Gust Speed 21 mph    
Visibility 10 miles    
Events Rain    
T = Trace of Precipitation, MM = Missing Value Source: NWS Daily Summary

Daily Weather History Graph

Daily Weather History Graph

Search for Another Location

Airport or City:

Trip Planner

Search our weather history database for the weather conditions in past years. The results will help you decide how hot, cold, wet, or windy it might be!

Date:

Astronomy

Sep. 20, 2012 Rise Set
Actual Time 6:25 AM HST 6:34 PM HST
Civil Twilight 6:03 AM HST 6:57 PM HST
Nautical Twilight 5:37 AM HST 7:23 PM HST
Astronomical Twilight 5:11 AM HST 7:49 PM HST
Moon 11:14 AM HST (9/20) 10:30 PM HST (9/20)
Length of Visible Light 12h 53m
Length of Day
12h 09m
Waxing Crescent, 29% of the Moon is Illuminated
Sep 20
Waxing Crescent
Sep 22
First Quarter
Sep 29
Full
Oct 7
Last Quarter
Oct 15
New

Hourly Weather History & Observations

Time (HST) Temp. Heat Index Dew Point Humidity Pressure Visibility Wind Dir Wind Speed Gust Speed Precip Events Conditions
12:53 AM 75.9 °F - 70.0 °F 82% 30.02 in 10.0 mi ENE 9.2 mph - 0.00 in Rain Light Rain
1:07 AM 75.2 °F - 69.8 °F 83% 30.03 in 10.0 mi East 9.2 mph - 0.00 in   Mostly Cloudy
1:53 AM 75.9 °F - 70.0 °F 82% 30.01 in 10.0 mi East 6.9 mph - 0.00 in   Scattered Clouds
2:08 AM 75.2 °F - 69.8 °F 83% 30.01 in 10.0 mi ENE 5.8 mph - N/A   Mostly Cloudy
2:22 AM 75.2 °F - 69.8 °F 83% 30.01 in 10.0 mi NNE 6.9 mph - N/A   Scattered Clouds
2:53 AM 75.0 °F - 70.0 °F 84% 30.00 in 10.0 mi NE 4.6 mph - N/A   Clear
3:53 AM 73.0 °F - 69.1 °F 87% 29.99 in 10.0 mi NNW 5.8 mph - N/A   Mostly Cloudy
4:35 AM 73.4 °F - 69.8 °F 88% 30.01 in 10.0 mi WNW 4.6 mph - 0.00 in Rain Light Rain
4:53 AM 72.0 °F - 69.1 °F 91% 30.01 in 10.0 mi West 6.9 mph - 0.00 in   Mostly Cloudy
5:03 AM 71.6 °F - 69.8 °F 94% 30.01 in 10.0 mi WNW 5.8 mph - N/A   Mostly Cloudy
5:17 AM 71.6 °F - 69.8 °F 94% 30.01 in 10.0 mi WNW 4.6 mph - N/A   Mostly Cloudy
5:30 AM 71.6 °F - 69.8 °F 94% 30.02 in 10.0 mi WNW 3.5 mph - N/A   Scattered Clouds
5:53 AM 71.1 °F - 68.0 °F 90% 30.01 in 10.0 mi WNW 5.8 mph - N/A   Partly Cloudy
6:53 AM 70.0 °F - 66.9 °F 90% 30.03 in 10.0 mi West 6.9 mph - N/A   Clear
7:53 AM 75.9 °F - 69.1 °F 79% 30.04 in 10.0 mi Calm Calm - N/A   Scattered Clouds
8:53 AM 79.0 °F - 69.1 °F 72% 30.04 in 10.0 mi North 8.1 mph - N/A   Scattered Clouds
9:53 AM 81.0 °F 84.4 °F 70.0 °F 69% 30.05 in 10.0 mi NNE 11.5 mph - N/A   Mostly Cloudy
10:53 AM 82.0 °F 85.5 °F 69.1 °F 65% 30.04 in 10.0 mi NE 9.2 mph - N/A   Clear
11:53 AM 82.0 °F 85.9 °F 70.0 °F 67% 30.02 in 10.0 mi NE 10.4 mph - N/A   Scattered Clouds
12:53 PM 82.0 °F 85.9 °F 70.0 °F 67% 30.00 in 10.0 mi NE 11.5 mph - N/A   Clear
1:53 PM 82.9 °F 87.0 °F 70.0 °F 65% 29.99 in 10.0 mi NE 15.0 mph - N/A   Partly Cloudy
2:53 PM 82.0 °F 86.3 °F 71.1 °F 69% 29.97 in 10.0 mi NNE 16.1 mph - N/A   Scattered Clouds
3:53 PM 81.0 °F 84.4 °F 70.0 °F 69% 29.97 in 10.0 mi NE 15.0 mph - N/A   Mostly Cloudy
4:53 PM 79.0 °F - 71.1 °F 77% 29.98 in 10.0 mi NE 16.1 mph - N/A   Scattered Clouds
5:53 PM 77.0 °F - 69.1 °F 76% 29.99 in 10.0 mi Calm Calm - N/A   Scattered Clouds
6:53 PM 77.0 °F - 69.1 °F 76% 30.01 in 10.0 mi WNW 3.5 mph - N/A   Overcast
7:22 PM 77.0 °F - 69.8 °F 78% 30.02 in 10.0 mi NW 5.8 mph - N/A   Overcast
7:53 PM 75.0 °F - 71.1 °F 87% 30.02 in 10.0 mi NNE 12.7 mph - 0.03 in   Overcast
8:53 PM 75.0 °F - 72.0 °F 90% 30.03 in 10.0 mi WNW 3.5 mph - 0.00 in Rain Light Rain
9:19 PM 73.4 °F - 71.6 °F 94% 30.05 in 5.0 mi Variable 4.6 mph - 0.06 in Rain Rain
9:53 PM 73.9 °F - 72.0 °F 93% 30.04 in 10.0 mi NW 3.5 mph - 0.06 in   Scattered Clouds
10:53 PM 73.0 °F - 71.1 °F 93% 30.04 in 10.0 mi West 6.9 mph - 0.00 in Rain Light Rain
11:01 PM 73.4 °F - 71.6 °F 94% 30.04 in 10.0 mi WNW 4.6 mph - 0.00 in   Overcast
11:28 PM 73.4 °F - 71.6 °F 94% 30.04 in 10.0 mi WNW 4.6 mph - 0.00 in   Scattered Clouds
11:38 PM 73.4 °F - 71.6 °F 94% 30.03 in 10.0 mi NW 3.5 mph - 0.00 in   Mostly Cloudy
11:53 PM 75.0 °F - 71.1 °F 87% 30.03 in 10.0 mi NNW 4.6 mph - 0.00 in   Mostly Cloudy